Torna al catalogo

COSMOS 1386

AttivoMilitarePO
NORAD 13353·PAYLOAD·🇷🇺 Russia

Lanciato Jul 7, 1982 da Plesetsk Cosmodrome

Loading…

Prossimi Passaggi (prossime 24 ore)

TLE

AggiornatoSource: Space-Track

Epoca: Sep 14, 2026, 07:35 UTC

1 13353U 82069A   26257.31613303  .00000048  00000-0  33350-4 0  9992
2 13353  82.9632  39.6218 0038874 174.5748 185.5838 13.76634221219243

Traccia COSMOS 1386 in tempo reale con AllMySat

Download on the App Store